| time (UTC) | temp F | wind direction | speed knots | gust knots | rain 1hr in | rain 24hr in | rain mn in | humidity % | barometer mb |
| 20260504081559 | 51 | 183 | 2.6 | 5.2 | 0.00 | 0.00 | 0.00 | 44 | 1005.6 |
| 20260504044539 | 52 | 319 | 0.0 | 0.9 | 0.00 | 0.00 | 0.00 | 39 | 1007.5 |
| 20260504043030 | 52 | 319 | 0.0 | 2.6 | 0.00 | 0.00 | 0.00 | 40 | 1007.6 |
| 20260504041531 | 53 | 323 | 1.7 | 4.3 | 0.00 | 0.00 | 0.00 | 45 | 1007.7 |
| 20260504040027 | 54 | 223 | 0.9 | 1.7 | 0.00 | 0.00 | 0.00 | 42 | 1007.9 |
| 20260504034526 | 54 | 223 | 0.0 | 0.0 | 0.00 | 0.00 | 0.00 | 39 | 1008.0 |
| 20260504033026 | 56 | 223 | 1.7 | 3.5 | 0.00 | 0.00 | 0.00 | 35 | 1008.2 |
| 20260504031525 | 57 | 265 | 0.0 | 0.9 | 0.00 | 0.00 | 0.00 | 32 | 1008.3 |
| 20260504030036 | 58 | 265 | 0.0 | 0.0 | 0.00 | 0.00 | 0.00 | 28 | 1008.4 |
| 20260504024524 | 60 | 265 | 0.0 | 0.0 | 0.00 | 0.00 | 0.00 | 28 | 1008.3 |
| 20260504023024 | 62 | 265 | 0.9 | 1.7 | 0.00 | 0.00 | 0.00 | 25 | 1008.1 |
| 20260504021528 | 62 | 265 | 0.9 | 2.6 | 0.00 | 0.00 | 0.00 | 24 | 1008.0 |
| 20260504020022 | 63 | 264 | 1.7 | 3.5 | 0.00 | 0.00 | 0.00 | 24 | 1008.0 |
| 20260504014522 | 64 | 263 | 1.7 | 5.2 | 0.00 | 0.00 | 0.00 | 25 | 1008.1 |
| 20260504013022 | 64 | 263 | 1.7 | 3.5 | 0.00 | 0.00 | 0.00 | 24 | 1008.3 |
| 20260504011522 | 65 | 272 | 0.9 | 3.5 | 0.00 | 0.00 | 0.00 | 22 | 1008.4 |
| 20260504010121 | 66 | 274 | 1.7 | 3.5 | 0.00 | 0.00 | 0.00 | 22 | 1008.3 |
| 20260504004522 | 68 | 280 | 3.5 | 7.0 | 0.00 | 0.00 | 0.00 | 21 | 1008.3 |
| 20260504003019 | 69 | 265 | 1.7 | 8.7 | 0.00 | 0.00 | 0.00 | 20 | 1008.3 |
| 20260504001518 | 70 | 275 | 7.0 | 11.3 | 0.00 | 0.00 | 0.00 | 18 | 1008.2 |
| 20260504000018 | 70 | 272 | 7.8 | 13.0 | 0.00 | 0.00 | 0.00 | 18 | 1008.1 |
| 20260503234527 | 71 | 286 | 8.7 | 13.9 | 0.00 | 0.00 | 0.00 | 17 | 1008.1 |
| 20260503233017 | 71 | 279 | 7.8 | 14.8 | 0.00 | 0.00 | 0.00 | 18 | 1008.0 |
| 20260503231516 | 72 | 293 | 11.3 | 15.6 | 0.00 | 0.00 | 0.00 | 17 | 1008.1 |
| 20260503230016 | 72 | 287 | 9.6 | 15.6 | 0.00 | 0.00 | 0.00 | 17 | 1008.1 |
| 20260503224515 | 72 | 288 | 7.8 | 13.9 | 0.00 | 0.00 | 0.00 | 18 | 1008.1 |
| 20260503223014 | 72 | 297 | 7.0 | 15.6 | 0.00 | 0.00 | 0.00 | 21 | 1008.1 |
| 20260503221514 | 72 | 279 | 9.6 | 18.2 | 0.00 | 0.00 | 0.00 | 20 | 1008.0 |
| 20260503220034 | 72 | 300 | 12.2 | 17.4 | 0.00 | 0.00 | 0.00 | 17 | 1008.2 |
| 20260503214512 | 72 | 282 | 10.4 | 14.8 | 0.00 | 0.00 | 0.00 | 16 | 1008.2 |
| 20260503213013 | 73 | 269 | 8.7 | 16.5 | 0.00 | 0.00 | 0.00 | 18 | 1008.1 |
| 20260503211511 | 73 | 304 | 9.6 | 15.6 | 0.00 | 0.00 | 0.00 | 18 | 1008.1 |
| 20260503210010 | 73 | 290 | 13.0 | 20.9 | 0.00 | 0.00 | 0.00 | 15 | 1008.3 |
| 20260503204507 | 73 | 333 | 8.7 | 14.8 | 0.00 | 0.00 | 0.00 | 19 | 1008.5 |
| 20260503203015 | 73 | 270 | 12.2 | 17.4 | 0.00 | 0.00 | 0.00 | 17 | 1008.6 |
| 20260503201506 | 73 | 297 | 9.6 | 19.1 | 0.00 | 0.00 | 0.00 | 22 | 1008.8 |
| 20260503200004 | 73 | 300 | 11.3 | 18.2 | 0.00 | 0.00 | 0.00 | 20 | 1008.8 |
| 20260503194502 | 73 | 308 | 10.4 | 17.4 | 0.00 | 0.00 | 0.00 | 21 | 1008.9 |
| 20260503193111 | 72 | 311 | 12.2 | 16.5 | 0.00 | 0.00 | 0.00 | 21 | 1009.0 |
| 20260503191607 | 72 | 288 | 12.2 | 21.7 | 0.00 | 0.00 | 0.00 | 21 | 1009.1 |
| 20260503190101 | 72 | 316 | 11.3 | 20.9 | 0.00 | 0.00 | 0.00 | 21 | 1009.1 |
| 20260503184607 | 72 | 272 | 12.2 | 20.0 | 0.00 | 0.00 | 0.00 | 21 | 1009.1 |
| 20260503183106 | 71 | 307 | 11.3 | 18.2 | 0.00 | 0.00 | 0.00 | 25 | 1009.2 |
| 20260503181601 | 71 | 303 | 13.0 | 23.5 | 0.00 | 0.00 | 0.00 | 26 | 1009.3 |
| 20260503180049 | 70 | 319 | 13.0 | 20.9 | 0.00 | 0.00 | 0.00 | 25 | 1009.3 |
| 20260503174547 | 70 | 311 | 13.0 | 21.7 | 0.00 | 0.00 | 0.00 | 25 | 1009.3 |
| 20260503173056 | 70 | 304 | 14.8 | 19.1 | 0.00 | 0.00 | 0.00 | 27 | 1009.3 |
| 20260503171541 | 69 | 289 | 12.2 | 16.5 | 0.00 | 0.00 | 0.00 | 27 | 1009.7 |